Location: *
(51.1248°S, 108.4023°W)
Time: 14:09:07
(UTC+00:00)

CZ-2C R/B - Visible Passes

Search period start: 22 October 2021 00:00
Search period end: 01 November 2021 00:00
Orbit: 704 x 907 km, 98.1° (Epoch: 21 October)

Date Brightness Start Highest point End Pass type
(mag) Time Alt. Az. Time Alt. Az. Time Alt. Az.
22 Oct 6.3 03:16:51 10° SSW 03:20:21 18° SW 03:23:56 10° W visible
23 Oct 5.7 02:51:22 10° S 02:55:43 26° WSW 03:00:12 10° WNW visible
23 Oct 5.7 10:58:25 10° ENE 11:02:15 24° ESE 11:06:12 10° S visible
24 Oct 6.2 10:34:39 10° E 10:37:38 16° SE 10:40:41 10° SSE visible
25 Oct 6.7 03:42:52 10° SSW 03:45:05 13° SW 03:47:21 10° WSW visible
25 Oct 6.7 10:11:40 10° ESE 10:13:06 11° SE 10:14:34 10° SSE visible
26 Oct 6.4 03:16:58 10° SSW 03:20:33 18° SW 03:24:13 10° W visible
27 Oct 5.8 02:51:30 10° S 02:55:56 26° WSW 03:00:30 10° WNW visible
27 Oct 5.7 10:58:28 10° ENE 11:02:23 25° ESE 11:06:27 10° S visible
28 Oct 6.2 10:34:38 10° E 10:37:47 17° SE 10:41:00 10° SSE visible
29 Oct 6.7 03:42:58 10° SSW 03:45:18 13° SW 03:47:39 10° WSW visible
29 Oct 6.7 10:11:30 10° ESE 10:13:15 12° SE 10:15:02 10° SSE visible
30 Oct 6.4 03:17:06 10° SSW 03:20:46 18° SW 03:24:31 10° W visible
31 Oct 5.9 02:51:39 10° S 02:56:10 26° WSW 03:00:48 10° WNW visible
31 Oct 5.7 10:58:31 10° ENE 11:02:32 26° ESE 11:06:45 10° S visible
